Location: Unspecified
(41.5516°N, 88.1098°W)
Time: 22:40:38
(UTC-05:00)

Cosmos 1674 - Visible Passes

Search period start: 25 October 2014 00:00
Search period end: 03 November 2014 23:00
Orbit: 514 x 540 km, 82.5° (Epoch: 24 October)

Date Brightness Start Highest point End Pass type
(mag) Time Alt. Az. Time Alt. Az. Time Alt. Az.
25 Oct 2.9 05:46:05 10° S 05:50:00 76° E 05:53:59 10° N visible
26 Oct 3.1 05:34:43 10° S 05:38:37 68° E 05:42:34 10° NNE visible
27 Oct 3.2 05:23:20 10° S 05:27:13 61° E 05:31:08 10° NNE visible
28 Oct 3.4 05:11:57 10° S 05:15:48 55° E 05:19:41 10° NNE visible
28 Oct 4.7 06:51:02 10° W 06:52:07 11° WNW 06:53:12 10° NW visible
29 Oct 3.6 05:03:43 44° SE 05:04:22 49° E 05:08:12 10° NNE visible
29 Oct 4.6 06:39:08 10° W 06:40:37 12° WNW 06:42:12 10° NW visible
30 Oct 4.4 04:54:20 30° NE 04:54:20 30° NE 04:56:42 10° NNE visible
30 Oct 4.6 06:29:41 13° WNW 06:29:41 13° WNW 06:31:03 10° NW visible
31 Oct 5.4 04:44:20 15° NNE 04:44:20 15° NNE 04:45:10 10° NNE visible
31 Oct 5.0 06:19:39 11° NW 06:19:39 11° NW 06:19:49 10° NW visible
